TimeAFT,TemperatureF,Dew PointF,Humidity,Sea Level PressureIn,VisibilityMPH,Wind Direction,Wind SpeedMPH,Gust SpeedMPH,PrecipitationIn,Events,Conditions,WindDirDegrees,DateUTC
12:24 AM,39.2,30.2,70,30.12,6.2,NNW,5.8,-,N/A,,Overcast,330,2013-02-14 19:54:00
1:24 AM,39.2,24.8,56,30.12,-9999.0,North,11.5,-,N/A,,Clear,350,2013-02-14 20:54:00
2:25 AM,37.4,24.8,60,30.09,6.2,NNW,15.0,-,N/A,,Overcast,340,2013-02-14 21:55:00
3:25 AM,37.4,24.8,60,30.09,6.2,North,11.5,-,N/A,,Mostly Cloudy,350,2013-02-14 22:55:00
4:24 AM,37.4,24.8,60,30.09,-9999.0,North,12.7,26.5,N/A,,Clear,350,2013-02-14 23:54:00
5:24 AM,37.4,24.8,60,30.12,6.2,North,12.7,24.2,N/A,,Unknown,350,2013-02-15 00:54:00
6:24 AM,39.2,23.0,52,30.15,-9999.0,North,12.7,-,N/A,,Clear,350,2013-02-15 01:54:00
7:25 AM,37.4,17.6,45,30.15,-9999.0,North,12.7,-,N/A,,Clear,350,2013-02-15 02:55:00
8:24 AM,39.2,17.6,42,30.18,-9999.0,North,11.5,-,N/A,,Clear,350,2013-02-15 03:54:00
9:25 AM,41.0,17.6,39,30.21,-9999.0,North,11.5,-,N/A,,Clear,350,2013-02-15 04:55:00
10:25 AM,44.6,19.4,37,30.18,-9999.0,North,12.7,24.2,N/A,,Clear,350,2013-02-15 05:55:00
11:25 AM,46.4,21.2,37,30.18,-9999.0,NNW,11.5,-,N/A,,Clear,340,2013-02-15 06:55:00
12:25 PM,50.0,23.0,35,30.15,-9999.0,NNW,9.2,-,N/A,,Clear,330,2013-02-15 07:55:00
1:25 PM,51.8,24.8,35,30.12,-9999.0,NNW,6.9,-,N/A,,Clear,330,2013-02-15 08:55:00
2:25 PM,51.8,28.4,41,30.12,-9999.0,West,8.1,-,N/A,,Clear,260,2013-02-15 09:55:00
3:25 PM,51.8,23.0,33,30.09,-9999.0,WSW,11.5,-,N/A,,Clear,250,2013-02-15 10:55:00
4:25 PM,50.0,23.0,35,30.09,-9999.0,WSW,10.4,-,N/A,,Clear,240,2013-02-15 11:55:00
5:25 PM,46.4,21.2,37,30.12,4.3,WSW,10.4,-,N/A,,Unknown,250,2013-02-15 12:55:00
6:25 PM,42.8,23.0,46,30.12,-9999.0,WSW,9.2,-,N/A,,Clear,250,2013-02-15 13:55:00
7:25 PM,41.0,24.8,53,30.15,-9999.0,WSW,6.9,-,N/A,,Clear,240,2013-02-15 14:55:00
8:25 PM,39.2,24.8,56,30.15,-9999.0,SW,8.1,-,N/A,,Clear,230,2013-02-15 15:55:00
9:25 PM,39.2,24.8,56,30.15,-9999.0,SSW,5.8,-,N/A,,Clear,210,2013-02-15 16:55:00
10:25 PM,39.2,24.8,56,30.15,-9999.0,SW,5.8,-,N/A,,Clear,230,2013-02-15 17:55:00
11:25 PM,37.4,26.6,65,30.15,-9999.0,SW,4.6,-,N/A,,Clear,230,2013-02-15 18:55:00